Index of /20260430/WXO-DD/model_gdps/15km/00/186
Name Last modified Size Description
Parent Directory -
20260430T00Z_MSC_GDPS_AbsoluteVorticity_IsbL-0200_LatLon0.15_PT186H.grib2 2026-04-30 04:36 1.5M
20260430T00Z_MSC_GDPS_AbsoluteVorticity_IsbL-0250_LatLon0.15_PT186H.grib2 2026-04-30 04:36 1.3M
20260430T00Z_MSC_GDPS_AbsoluteVorticity_IsbL-0500_LatLon0.15_PT186H.grib2 2026-04-30 04:36 1.5M
20260430T00Z_MSC_GDPS_AbsoluteVorticity_IsbL-0700_LatLon0.15_PT186H.grib2 2026-04-30 04:36 1.3M
20260430T00Z_MSC_GDPS_AbsoluteVorticity_IsbL-0850_LatLon0.15_PT186H.grib2 2026-04-30 04:36 1.6M
20260430T00Z_MSC_GDPS_AirTemp-Max_AGL-2m_LatLon0.15_PT186H.grib2 2026-04-30 04:36 743K
20260430T00Z_MSC_GDPS_AirTemp-Min_AGL-2m_LatLon0.15_PT186H.grib2 2026-04-30 04:36 789K
20260430T00Z_MSC_GDPS_AirTemp_AGL-120m_LatLon0.15_PT186H.grib2 2026-04-30 04:36 905K
20260430T00Z_MSC_GDPS_AirTemp_AGL-2m_LatLon0.15_PT186H.grib2 2026-04-30 04:36 1.0M
20260430T00Z_MSC_GDPS_AirTemp_AGL-40m_LatLon0.15_PT186H.grib2 2026-04-30 04:36 808K
20260430T00Z_MSC_GDPS_AirTemp_AGL-80m_LatLon0.15_PT186H.grib2 2026-04-30 04:36 914K
20260430T00Z_MSC_GDPS_AirTemp_IsbL-0001_LatLon0.15_PT186H.grib2 2026-04-30 04:36 660K
20260430T00Z_MSC_GDPS_AirTemp_IsbL-0005_LatLon0.15_PT186H.grib2 2026-04-30 04:36 692K
20260430T00Z_MSC_GDPS_AirTemp_IsbL-0010_LatLon0.15_PT186H.grib2 2026-04-30 04:36 698K
20260430T00Z_MSC_GDPS_AirTemp_IsbL-0020_LatLon0.15_PT186H.grib2 2026-04-30 04:36 791K
20260430T00Z_MSC_GDPS_AirTemp_IsbL-0030_LatLon0.15_PT186H.grib2 2026-04-30 04:36 837K
20260430T00Z_MSC_GDPS_AirTemp_IsbL-0050_LatLon0.15_PT186H.grib2 2026-04-30 04:36 802K
20260430T00Z_MSC_GDPS_AirTemp_IsbL-0100_LatLon0.15_PT186H.grib2 2026-04-30 04:36 967K
20260430T00Z_MSC_GDPS_AirTemp_IsbL-0150_LatLon0.15_PT186H.grib2 2026-04-30 04:36 1.0M
20260430T00Z_MSC_GDPS_AirTemp_IsbL-0175_LatLon0.15_PT186H.grib2 2026-04-30 04:36 965K
20260430T00Z_MSC_GDPS_AirTemp_IsbL-0200_LatLon0.15_PT186H.grib2 2026-04-30 04:36 1.0M
20260430T00Z_MSC_GDPS_AirTemp_IsbL-0225_LatLon0.15_PT186H.grib2 2026-04-30 04:36 1.0M
20260430T00Z_MSC_GDPS_AirTemp_IsbL-0250_LatLon0.15_PT186H.grib2 2026-04-30 04:36 1.0M
20260430T00Z_MSC_GDPS_AirTemp_IsbL-0275_LatLon0.15_PT186H.grib2 2026-04-30 04:36 1.0M
20260430T00Z_MSC_GDPS_AirTemp_IsbL-0300_LatLon0.15_PT186H.grib2 2026-04-30 04:36 949K
20260430T00Z_MSC_GDPS_AirTemp_IsbL-0350_LatLon0.15_PT186H.grib2 2026-04-30 04:36 933K
20260430T00Z_MSC_GDPS_AirTemp_IsbL-0400_LatLon0.15_PT186H.grib2 2026-04-30 04:36 949K
20260430T00Z_MSC_GDPS_AirTemp_IsbL-0450_LatLon0.15_PT186H.grib2 2026-04-30 04:36 971K
20260430T00Z_MSC_GDPS_AirTemp_IsbL-0500_LatLon0.15_PT186H.grib2 2026-04-30 04:36 1.0M
20260430T00Z_MSC_GDPS_AirTemp_IsbL-0550_LatLon0.15_PT186H.grib2 2026-04-30 04:36 1.0M
20260430T00Z_MSC_GDPS_AirTemp_IsbL-0600_LatLon0.15_PT186H.grib2 2026-04-30 04:36 894K
20260430T00Z_MSC_GDPS_AirTemp_IsbL-0650_LatLon0.15_PT186H.grib2 2026-04-30 04:36 921K
20260430T00Z_MSC_GDPS_AirTemp_IsbL-0700_LatLon0.15_PT186H.grib2 2026-04-30 04:36 960K
20260430T00Z_MSC_GDPS_AirTemp_IsbL-0750_LatLon0.15_PT186H.grib2 2026-04-30 04:36 1.0M
20260430T00Z_MSC_GDPS_AirTemp_IsbL-0800_LatLon0.15_PT186H.grib2 2026-04-30 04:36 1.1M
20260430T00Z_MSC_GDPS_AirTemp_IsbL-0850_LatLon0.15_PT186H.grib2 2026-04-30 04:36 1.1M
20260430T00Z_MSC_GDPS_AirTemp_IsbL-0875_LatLon0.15_PT186H.grib2 2026-04-30 04:36 1.2M
20260430T00Z_MSC_GDPS_AirTemp_IsbL-0900_LatLon0.15_PT186H.grib2 2026-04-30 04:36 1.1M
20260430T00Z_MSC_GDPS_AirTemp_IsbL-0925_LatLon0.15_PT186H.grib2 2026-04-30 04:36 1.1M
20260430T00Z_MSC_GDPS_AirTemp_IsbL-0950_LatLon0.15_PT186H.grib2 2026-04-30 04:36 1.1M
20260430T00Z_MSC_GDPS_AirTemp_IsbL-0970_LatLon0.15_PT186H.grib2 2026-04-30 04:36 1.2M
20260430T00Z_MSC_GDPS_AirTemp_IsbL-0985_LatLon0.15_PT186H.grib2 2026-04-30 04:36 1.1M
20260430T00Z_MSC_GDPS_AirTemp_IsbL-1000_LatLon0.15_PT186H.grib2 2026-04-30 04:36 1.1M
20260430T00Z_MSC_GDPS_AirTemp_IsbL-1015_LatLon0.15_PT186H.grib2 2026-04-30 04:36 1.1M
20260430T00Z_MSC_GDPS_Albedo_Sfc_LatLon0.15_PT186H.grib2 2026-04-30 04:36 245K
20260430T00Z_MSC_GDPS_CAPE_Sfc_LatLon0.15_PT186H.grib2 2026-04-30 04:36 3.7M
20260430T00Z_MSC_GDPS_CIN_Sfc_LatLon0.15_PT186H.grib2 2026-04-30 04:36 2.8M
20260430T00Z_MSC_GDPS_CloudWater_EAtm_LatLon0.15_PT186H.grib2 2026-04-30 04:36 541K
20260430T00Z_MSC_GDPS_ConvectivePrecip-Accum_Sfc_LatLon0.15_PT186H.grib2 2026-04-30 04:36 3.6M
20260430T00Z_MSC_GDPS_DewPointDepression_AGL-2m_LatLon0.15_PT186H.grib2 2026-04-30 04:36 763K
20260430T00Z_MSC_GDPS_DewPointDepression_IsbL-0010_LatLon0.15_PT186H.grib2 2026-04-30 04:36 70K
20260430T00Z_MSC_GDPS_DewPointDepression_IsbL-0020_LatLon0.15_PT186H.grib2 2026-04-30 04:36 73K
20260430T00Z_MSC_GDPS_DewPointDepression_IsbL-0030_LatLon0.15_PT186H.grib2 2026-04-30 04:36 88K
20260430T00Z_MSC_GDPS_DewPointDepression_IsbL-0050_LatLon0.15_PT186H.grib2 2026-04-30 04:36 377K
20260430T00Z_MSC_GDPS_DewPointDepression_IsbL-0100_LatLon0.15_PT186H.grib2 2026-04-30 04:36 394K
20260430T00Z_MSC_GDPS_DewPointDepression_IsbL-0150_LatLon0.15_PT186H.grib2 2026-04-30 04:36 497K
20260430T00Z_MSC_GDPS_DewPointDepression_IsbL-0175_LatLon0.15_PT186H.grib2 2026-04-30 04:36 599K
20260430T00Z_MSC_GDPS_DewPointDepression_IsbL-0200_LatLon0.15_PT186H.grib2 2026-04-30 04:36 692K
20260430T00Z_MSC_GDPS_DewPointDepression_IsbL-0225_LatLon0.15_PT186H.grib2 2026-04-30 04:36 769K
20260430T00Z_MSC_GDPS_DewPointDepression_IsbL-0250_LatLon0.15_PT186H.grib2 2026-04-30 04:36 863K
20260430T00Z_MSC_GDPS_DewPointDepression_IsbL-0275_LatLon0.15_PT186H.grib2 2026-04-30 04:36 887K
20260430T00Z_MSC_GDPS_DewPointDepression_IsbL-0300_LatLon0.15_PT186H.grib2 2026-04-30 04:36 938K
20260430T00Z_MSC_GDPS_DewPointDepression_IsbL-0350_LatLon0.15_PT186H.grib2 2026-04-30 04:36 971K
20260430T00Z_MSC_GDPS_DewPointDepression_IsbL-0400_LatLon0.15_PT186H.grib2 2026-04-30 04:36 1.0M
20260430T00Z_MSC_GDPS_DewPointDepression_IsbL-0450_LatLon0.15_PT186H.grib2 2026-04-30 04:36 1.0M
20260430T00Z_MSC_GDPS_DewPointDepression_IsbL-0500_LatLon0.15_PT186H.grib2 2026-04-30 04:36 1.0M
20260430T00Z_MSC_GDPS_DewPointDepression_IsbL-0550_LatLon0.15_PT186H.grib2 2026-04-30 04:36 1.0M
20260430T00Z_MSC_GDPS_DewPointDepression_IsbL-0600_LatLon0.15_PT186H.grib2 2026-04-30 04:36 1.1M
20260430T00Z_MSC_GDPS_DewPointDepression_IsbL-0650_LatLon0.15_PT186H.grib2 2026-04-30 04:36 1.1M
20260430T00Z_MSC_GDPS_DewPointDepression_IsbL-0700_LatLon0.15_PT186H.grib2 2026-04-30 04:36 1.1M
20260430T00Z_MSC_GDPS_DewPointDepression_IsbL-0750_LatLon0.15_PT186H.grib2 2026-04-30 04:36 1.1M
20260430T00Z_MSC_GDPS_DewPointDepression_IsbL-0800_LatLon0.15_PT186H.grib2 2026-04-30 04:36 1.2M
20260430T00Z_MSC_GDPS_DewPointDepression_IsbL-0850_LatLon0.15_PT186H.grib2 2026-04-30 04:36 1.2M
20260430T00Z_MSC_GDPS_DewPointDepression_IsbL-0875_LatLon0.15_PT186H.grib2 2026-04-30 04:36 1.1M
20260430T00Z_MSC_GDPS_DewPointDepression_IsbL-0900_LatLon0.15_PT186H.grib2 2026-04-30 04:36 1.1M
20260430T00Z_MSC_GDPS_DewPointDepression_IsbL-0925_LatLon0.15_PT186H.grib2 2026-04-30 04:36 1.0M
20260430T00Z_MSC_GDPS_DewPointDepression_IsbL-0950_LatLon0.15_PT186H.grib2 2026-04-30 04:36 1.0M
20260430T00Z_MSC_GDPS_DewPointDepression_IsbL-0970_LatLon0.15_PT186H.grib2 2026-04-30 04:36 1.0M
20260430T00Z_MSC_GDPS_DewPointDepression_IsbL-0985_LatLon0.15_PT186H.grib2 2026-04-30 04:36 1.0M
20260430T00Z_MSC_GDPS_DewPointDepression_IsbL-1000_LatLon0.15_PT186H.grib2 2026-04-30 04:36 969K
20260430T00Z_MSC_GDPS_DewPointDepression_IsbL-1015_LatLon0.15_PT186H.grib2 2026-04-30 04:36 913K
20260430T00Z_MSC_GDPS_DewPoint_AGL-2m_LatLon0.15_PT186H.grib2 2026-04-30 04:36 611K
20260430T00Z_MSC_GDPS_DownwardLongwaveRadiationFlux-Accum_Sfc_LatLon0.15_PT186H.grib2 2026-04-30 04:36 657K
20260430T00Z_MSC_GDPS_DownwardShortwaveRadiationFlux-Accum_NTAtm_LatLon0.15_PT186H.grib2 2026-04-30 04:36 238K
20260430T00Z_MSC_GDPS_DownwardShortwaveRadiationFlux-Accum_Sfc_LatLon0.15_PT186H.grib2 2026-04-30 04:36 844K
20260430T00Z_MSC_GDPS_FreezingRain-Accum12h_Sfc_LatLon0.15_PT186H.grib2 2026-04-30 04:36 98K
20260430T00Z_MSC_GDPS_FreezingRain-Accum24h_Sfc_LatLon0.15_PT186H.grib2 2026-04-30 04:36 95K
20260430T00Z_MSC_GDPS_FreezingRain-Accum6h_Sfc_LatLon0.15_PT186H.grib2 2026-04-30 04:36 73K
20260430T00Z_MSC_GDPS_FreezingRain-Accum_Sfc_LatLon0.15_PT186H.grib2 2026-04-30 04:36 381K
20260430T00Z_MSC_GDPS_GeopotentialHeight_IsbL-0001_LatLon0.15_PT186H.grib2 2026-04-30 04:36 438K
20260430T00Z_MSC_GDPS_GeopotentialHeight_IsbL-0005_LatLon0.15_PT186H.grib2 2026-04-30 04:36 494K
20260430T00Z_MSC_GDPS_GeopotentialHeight_IsbL-0010_LatLon0.15_PT186H.grib2 2026-04-30 04:36 479K
20260430T00Z_MSC_GDPS_GeopotentialHeight_IsbL-0020_LatLon0.15_PT186H.grib2 2026-04-30 04:36 411K
20260430T00Z_MSC_GDPS_GeopotentialHeight_IsbL-0030_LatLon0.15_PT186H.grib2 2026-04-30 04:36 413K
20260430T00Z_MSC_GDPS_GeopotentialHeight_IsbL-0050_LatLon0.15_PT186H.grib2 2026-04-30 04:36 565K
20260430T00Z_MSC_GDPS_GeopotentialHeight_IsbL-0100_LatLon0.15_PT186H.grib2 2026-04-30 04:36 610K
20260430T00Z_MSC_GDPS_GeopotentialHeight_IsbL-0150_LatLon0.15_PT186H.grib2 2026-04-30 04:36 632K
20260430T00Z_MSC_GDPS_GeopotentialHeight_IsbL-0175_LatLon0.15_PT186H.grib2 2026-04-30 04:36 636K
20260430T00Z_MSC_GDPS_GeopotentialHeight_IsbL-0200_LatLon0.15_PT186H.grib2 2026-04-30 04:36 642K
20260430T00Z_MSC_GDPS_GeopotentialHeight_IsbL-0225_LatLon0.15_PT186H.grib2 2026-04-30 04:36 638K
20260430T00Z_MSC_GDPS_GeopotentialHeight_IsbL-0250_LatLon0.15_PT186H.grib2 2026-04-30 04:36 641K
20260430T00Z_MSC_GDPS_GeopotentialHeight_IsbL-0275_LatLon0.15_PT186H.grib2 2026-04-30 04:36 642K
20260430T00Z_MSC_GDPS_GeopotentialHeight_IsbL-0300_LatLon0.15_PT186H.grib2 2026-04-30 04:36 633K
20260430T00Z_MSC_GDPS_GeopotentialHeight_IsbL-0350_LatLon0.15_PT186H.grib2 2026-04-30 04:36 629K
20260430T00Z_MSC_GDPS_GeopotentialHeight_IsbL-0400_LatLon0.15_PT186H.grib2 2026-04-30 04:36 618K
20260430T00Z_MSC_GDPS_GeopotentialHeight_IsbL-0450_LatLon0.15_PT186H.grib2 2026-04-30 04:36 607K
20260430T00Z_MSC_GDPS_GeopotentialHeight_IsbL-0500_LatLon0.15_PT186H.grib2 2026-04-30 04:36 531K
20260430T00Z_MSC_GDPS_GeopotentialHeight_IsbL-0550_LatLon0.15_PT186H.grib2 2026-04-30 04:36 523K
20260430T00Z_MSC_GDPS_GeopotentialHeight_IsbL-0600_LatLon0.15_PT186H.grib2 2026-04-30 04:36 523K
20260430T00Z_MSC_GDPS_GeopotentialHeight_IsbL-0650_LatLon0.15_PT186H.grib2 2026-04-30 04:36 692K
20260430T00Z_MSC_GDPS_GeopotentialHeight_IsbL-0700_LatLon0.15_PT186H.grib2 2026-04-30 04:36 690K
20260430T00Z_MSC_GDPS_GeopotentialHeight_IsbL-0750_LatLon0.15_PT186H.grib2 2026-04-30 04:36 695K
20260430T00Z_MSC_GDPS_GeopotentialHeight_IsbL-0800_LatLon0.15_PT186H.grib2 2026-04-30 04:36 710K
20260430T00Z_MSC_GDPS_GeopotentialHeight_IsbL-0850_LatLon0.15_PT186H.grib2 2026-04-30 04:36 719K
20260430T00Z_MSC_GDPS_GeopotentialHeight_IsbL-0875_LatLon0.15_PT186H.grib2 2026-04-30 04:36 723K
20260430T00Z_MSC_GDPS_GeopotentialHeight_IsbL-0900_LatLon0.15_PT186H.grib2 2026-04-30 04:36 728K
20260430T00Z_MSC_GDPS_GeopotentialHeight_IsbL-0925_LatLon0.15_PT186H.grib2 2026-04-30 04:36 735K
20260430T00Z_MSC_GDPS_GeopotentialHeight_IsbL-0950_LatLon0.15_PT186H.grib2 2026-04-30 04:36 741K
20260430T00Z_MSC_GDPS_GeopotentialHeight_IsbL-0970_LatLon0.15_PT186H.grib2 2026-04-30 04:36 753K
20260430T00Z_MSC_GDPS_GeopotentialHeight_IsbL-0985_LatLon0.15_PT186H.grib2 2026-04-30 04:36 768K
20260430T00Z_MSC_GDPS_GeopotentialHeight_IsbL-1000_LatLon0.15_PT186H.grib2 2026-04-30 04:36 789K
20260430T00Z_MSC_GDPS_GeopotentialHeight_IsbL-1015_LatLon0.15_PT186H.grib2 2026-04-30 04:36 812K
20260430T00Z_MSC_GDPS_Humidex_Sfc_LatLon0.15_PT186H.grib2 2026-04-30 04:36 5.3M
20260430T00Z_MSC_GDPS_IcePellets-Accum12h_Sfc_LatLon0.15_PT186H.grib2 2026-04-30 04:36 28K
20260430T00Z_MSC_GDPS_IcePellets-Accum24h_Sfc_LatLon0.15_PT186H.grib2 2026-04-30 04:36 36K
20260430T00Z_MSC_GDPS_IcePellets-Accum6h_Sfc_LatLon0.15_PT186H.grib2 2026-04-30 04:36 15K
20260430T00Z_MSC_GDPS_IcePellets-Accum_Sfc_LatLon0.15_PT186H.grib2 2026-04-30 04:36 125K
20260430T00Z_MSC_GDPS_KIndex_Sfc_LatLon0.15_PT186H.grib2 2026-04-30 04:36 6.4M
20260430T00Z_MSC_GDPS_LatentHeatNetFlux_Sfc_LatLon0.15_PT186H.grib2 2026-04-30 04:36 698K
20260430T00Z_MSC_GDPS_LiftedIndex-MU-VT_IsbL-0500_LatLon0.15_PT186H.grib2 2026-04-30 04:36 5.4M
20260430T00Z_MSC_GDPS_NetLongwaveRadiationFlux-Accum_Sfc_LatLon0.15_PT186H.grib2 2026-04-30 04:36 881K
20260430T00Z_MSC_GDPS_NetShortwaveRadiationFlux-Accum_Sfc_LatLon0.15_PT186H.grib2 2026-04-30 04:36 842K
20260430T00Z_MSC_GDPS_O3MixingRatio_Sfc_LatLon0.15_PT186H.grib2 2026-04-30 04:51 1.9M
20260430T00Z_MSC_GDPS_O3_EAtm_LatLon0.15_PT186H.grib2 2026-04-30 04:51 2.4M
20260430T00Z_MSC_GDPS_PlanetaryBoundaryLayerHeight_Sfc_LatLon0.15_PT186H.grib2 2026-04-30 04:36 2.4M
20260430T00Z_MSC_GDPS_Precip-Accum12h_Sfc_LatLon0.15_PT186H.grib2 2026-04-30 04:36 3.8M
20260430T00Z_MSC_GDPS_Precip-Accum24h_Sfc_LatLon0.15_PT186H.grib2 2026-04-30 04:36 4.2M
20260430T00Z_MSC_GDPS_Precip-Accum6h_Sfc_LatLon0.15_PT186H.grib2 2026-04-30 04:36 3.6M
20260430T00Z_MSC_GDPS_Precip-Accum_Sfc_LatLon0.15_PT186H.grib2 2026-04-30 04:36 5.4M
20260430T00Z_MSC_GDPS_PrecipRate_Sfc_LatLon0.15_PT186H.grib2 2026-04-30 04:36 3.1M
20260430T00Z_MSC_GDPS_PrecipType-Instant_Sfc_LatLon0.15_PT186H.grib2 2026-04-30 04:36 1.6M
20260430T00Z_MSC_GDPS_Pressure_MSL_LatLon0.15_PT186H.grib2 2026-04-30 04:36 830K
20260430T00Z_MSC_GDPS_Pressure_PVU-1.5_LatLon0.15_PT186H.grib2 2026-04-30 04:36 5.8M
20260430T00Z_MSC_GDPS_Pressure_PVU-1_LatLon0.15_PT186H.grib2 2026-04-30 04:36 6.0M
20260430T00Z_MSC_GDPS_Pressure_PVU-2_LatLon0.15_PT186H.grib2 2026-04-30 04:36 6.0M
20260430T00Z_MSC_GDPS_Pressure_Sfc_LatLon0.15_PT186H.grib2 2026-04-30 04:36 1.1M
20260430T00Z_MSC_GDPS_RadiativeTemp_Sfc_LatLon0.15_PT186H.grib2 2026-04-30 04:36 663K
20260430T00Z_MSC_GDPS_Rain-Accum12h_Sfc_LatLon0.15_PT186H.grib2 2026-04-30 04:36 2.6M
20260430T00Z_MSC_GDPS_Rain-Accum24h_Sfc_LatLon0.15_PT186H.grib2 2026-04-30 04:36 3.0M
20260430T00Z_MSC_GDPS_Rain-Accum6h_Sfc_LatLon0.15_PT186H.grib2 2026-04-30 04:36 2.3M
20260430T00Z_MSC_GDPS_Rain-Accum_Sfc_LatLon0.15_PT186H.grib2 2026-04-30 04:36 4.2M
20260430T00Z_MSC_GDPS_RelativeHumidity_AGL-2m_LatLon0.15_PT186H.grib2 2026-04-30 04:36 1.0M
20260430T00Z_MSC_GDPS_RelativeHumidity_IsbL-0010_LatLon0.15_PT186H.grib2 2026-04-30 04:36 194K
20260430T00Z_MSC_GDPS_RelativeHumidity_IsbL-0020_LatLon0.15_PT186H.grib2 2026-04-30 04:36 158K
20260430T00Z_MSC_GDPS_RelativeHumidity_IsbL-0030_LatLon0.15_PT186H.grib2 2026-04-30 04:36 180K
20260430T00Z_MSC_GDPS_RelativeHumidity_IsbL-0050_LatLon0.15_PT186H.grib2 2026-04-30 04:36 332K
20260430T00Z_MSC_GDPS_RelativeHumidity_IsbL-0100_LatLon0.15_PT186H.grib2 2026-04-30 04:36 500K
20260430T00Z_MSC_GDPS_RelativeHumidity_IsbL-0150_LatLon0.15_PT186H.grib2 2026-04-30 04:36 678K
20260430T00Z_MSC_GDPS_RelativeHumidity_IsbL-0175_LatLon0.15_PT186H.grib2 2026-04-30 04:36 814K
20260430T00Z_MSC_GDPS_RelativeHumidity_IsbL-0200_LatLon0.15_PT186H.grib2 2026-04-30 04:36 725K
20260430T00Z_MSC_GDPS_RelativeHumidity_IsbL-0225_LatLon0.15_PT186H.grib2 2026-04-30 04:36 798K
20260430T00Z_MSC_GDPS_RelativeHumidity_IsbL-0250_LatLon0.15_PT186H.grib2 2026-04-30 04:36 869K
20260430T00Z_MSC_GDPS_RelativeHumidity_IsbL-0275_LatLon0.15_PT186H.grib2 2026-04-30 04:36 894K
20260430T00Z_MSC_GDPS_RelativeHumidity_IsbL-0300_LatLon0.15_PT186H.grib2 2026-04-30 04:36 941K
20260430T00Z_MSC_GDPS_RelativeHumidity_IsbL-0350_LatLon0.15_PT186H.grib2 2026-04-30 04:36 959K
20260430T00Z_MSC_GDPS_RelativeHumidity_IsbL-0400_LatLon0.15_PT186H.grib2 2026-04-30 04:36 1.0M
20260430T00Z_MSC_GDPS_RelativeHumidity_IsbL-0450_LatLon0.15_PT186H.grib2 2026-04-30 04:36 1.0M
20260430T00Z_MSC_GDPS_RelativeHumidity_IsbL-0500_LatLon0.15_PT186H.grib2 2026-04-30 04:36 1.0M
20260430T00Z_MSC_GDPS_RelativeHumidity_IsbL-0550_LatLon0.15_PT186H.grib2 2026-04-30 04:36 1.0M
20260430T00Z_MSC_GDPS_RelativeHumidity_IsbL-0600_LatLon0.15_PT186H.grib2 2026-04-30 04:36 1.0M
20260430T00Z_MSC_GDPS_RelativeHumidity_IsbL-0650_LatLon0.15_PT186H.grib2 2026-04-30 04:36 1.1M
20260430T00Z_MSC_GDPS_RelativeHumidity_IsbL-0700_LatLon0.15_PT186H.grib2 2026-04-30 04:36 1.1M
20260430T00Z_MSC_GDPS_RelativeHumidity_IsbL-0750_LatLon0.15_PT186H.grib2 2026-04-30 04:36 1.1M
20260430T00Z_MSC_GDPS_RelativeHumidity_IsbL-0800_LatLon0.15_PT186H.grib2 2026-04-30 04:36 1.2M
20260430T00Z_MSC_GDPS_RelativeHumidity_IsbL-0850_LatLon0.15_PT186H.grib2 2026-04-30 04:36 1.3M
20260430T00Z_MSC_GDPS_RelativeHumidity_IsbL-0875_LatLon0.15_PT186H.grib2 2026-04-30 04:36 1.3M
20260430T00Z_MSC_GDPS_RelativeHumidity_IsbL-0900_LatLon0.15_PT186H.grib2 2026-04-30 04:36 1.2M
20260430T00Z_MSC_GDPS_RelativeHumidity_IsbL-0925_LatLon0.15_PT186H.grib2 2026-04-30 04:36 1.2M
20260430T00Z_MSC_GDPS_RelativeHumidity_IsbL-0950_LatLon0.15_PT186H.grib2 2026-04-30 04:36 1.2M
20260430T00Z_MSC_GDPS_RelativeHumidity_IsbL-0970_LatLon0.15_PT186H.grib2 2026-04-30 04:36 1.2M
20260430T00Z_MSC_GDPS_RelativeHumidity_IsbL-0985_LatLon0.15_PT186H.grib2 2026-04-30 04:36 1.1M
20260430T00Z_MSC_GDPS_RelativeHumidity_IsbL-1000_LatLon0.15_PT186H.grib2 2026-04-30 04:36 1.1M
20260430T00Z_MSC_GDPS_RelativeHumidity_IsbL-1015_LatLon0.15_PT186H.grib2 2026-04-30 04:36 1.0M
20260430T00Z_MSC_GDPS_RelativeVorticity_IsbL-0200_LatLon0.15_PT186H.grib2 2026-04-30 04:36 1.5M
20260430T00Z_MSC_GDPS_RelativeVorticity_IsbL-0250_LatLon0.15_PT186H.grib2 2026-04-30 04:36 1.3M
20260430T00Z_MSC_GDPS_RelativeVorticity_IsbL-0500_LatLon0.15_PT186H.grib2 2026-04-30 04:36 1.5M
20260430T00Z_MSC_GDPS_RelativeVorticity_IsbL-0700_LatLon0.15_PT186H.grib2 2026-04-30 04:36 1.3M
20260430T00Z_MSC_GDPS_RelativeVorticity_IsbL-0850_LatLon0.15_PT186H.grib2 2026-04-30 04:36 1.6M
20260430T00Z_MSC_GDPS_Runoff-Accum_Sfc_LatLon0.15_PT186H.grib2 2026-04-30 04:36 126K
20260430T00Z_MSC_GDPS_SensibleHeatNetFlux_Sfc_LatLon0.15_PT186H.grib2 2026-04-30 04:36 466K
20260430T00Z_MSC_GDPS_ShowalterIndex_IsbL-0500_LatLon0.15_PT186H.grib2 2026-04-30 04:36 6.2M
20260430T00Z_MSC_GDPS_Snow-Accum12h_Sfc_LatLon0.15_PT186H.grib2 2026-04-30 04:36 1.4M
20260430T00Z_MSC_GDPS_Snow-Accum24h_Sfc_LatLon0.15_PT186H.grib2 2026-04-30 04:36 1.4M
20260430T00Z_MSC_GDPS_Snow-Accum6h_Sfc_LatLon0.15_PT186H.grib2 2026-04-30 04:36 1.3M
20260430T00Z_MSC_GDPS_Snow-Accum_Sfc_LatLon0.15_PT186H.grib2 2026-04-30 04:36 2.1M
20260430T00Z_MSC_GDPS_SnowDensity_Sfc_LatLon0.15_PT186H.grib2 2026-04-30 04:36 259K
20260430T00Z_MSC_GDPS_SnowDepth_Sfc_LatLon0.15_PT186H.grib2 2026-04-30 04:36 1.7M
20260430T00Z_MSC_GDPS_SoilTemp_DBS-0to10cm_LatLon0.15_PT186H.grib2 2026-04-30 04:36 514K
20260430T00Z_MSC_GDPS_SoilTemp_Sfc_LatLon0.15_PT186H.grib2 2026-04-30 04:36 580K
20260430T00Z_MSC_GDPS_SoilVolumetricIceContent_Sfc_LatLon0.15_PT186H.grib2 2026-04-30 04:36 185K
20260430T00Z_MSC_GDPS_SoilVolumetricWaterContent_DBS-0to10cm_LatLon0.15_PT186H.grib2 2026-04-30 04:36 593K
20260430T00Z_MSC_GDPS_SoilVolumetricWaterContent_DBS-0to1cm_LatLon0.15_PT186H.grib2 2026-04-30 04:36 650K
20260430T00Z_MSC_GDPS_SpecificHumidity_AGL-120m_LatLon0.15_PT186H.grib2 2026-04-30 04:36 1.1M
20260430T00Z_MSC_GDPS_SpecificHumidity_AGL-2m_LatLon0.15_PT186H.grib2 2026-04-30 04:36 1.2M
20260430T00Z_MSC_GDPS_SpecificHumidity_AGL-40m_LatLon0.15_PT186H.grib2 2026-04-30 04:36 1.1M
20260430T00Z_MSC_GDPS_SpecificHumidity_AGL-80m_LatLon0.15_PT186H.grib2 2026-04-30 04:36 1.1M
20260430T00Z_MSC_GDPS_SpecificHumidity_IsbL-0001_LatLon0.15_PT186H.grib2 2026-04-30 04:36 1.2M
20260430T00Z_MSC_GDPS_SpecificHumidity_IsbL-0005_LatLon0.15_PT186H.grib2 2026-04-30 04:36 1.1M
20260430T00Z_MSC_GDPS_SpecificHumidity_IsbL-0010_LatLon0.15_PT186H.grib2 2026-04-30 04:36 1.2M
20260430T00Z_MSC_GDPS_SpecificHumidity_IsbL-0020_LatLon0.15_PT186H.grib2 2026-04-30 04:36 1.2M
20260430T00Z_MSC_GDPS_SpecificHumidity_IsbL-0030_LatLon0.15_PT186H.grib2 2026-04-30 04:36 1.4M
20260430T00Z_MSC_GDPS_SpecificHumidity_IsbL-0050_LatLon0.15_PT186H.grib2 2026-04-30 04:36 1.5M
20260430T00Z_MSC_GDPS_SpecificHumidity_IsbL-0100_LatLon0.15_PT186H.grib2 2026-04-30 04:36 1.2M
20260430T00Z_MSC_GDPS_SpecificHumidity_IsbL-0150_LatLon0.15_PT186H.grib2 2026-04-30 04:36 1.3M
20260430T00Z_MSC_GDPS_SpecificHumidity_IsbL-0175_LatLon0.15_PT186H.grib2 2026-04-30 04:36 1.3M
20260430T00Z_MSC_GDPS_SpecificHumidity_IsbL-0200_LatLon0.15_PT186H.grib2 2026-04-30 04:36 1.3M
20260430T00Z_MSC_GDPS_SpecificHumidity_IsbL-0225_LatLon0.15_PT186H.grib2 2026-04-30 04:36 1.3M
20260430T00Z_MSC_GDPS_SpecificHumidity_IsbL-0250_LatLon0.15_PT186H.grib2 2026-04-30 04:36 1.4M
20260430T00Z_MSC_GDPS_SpecificHumidity_IsbL-0275_LatLon0.15_PT186H.grib2 2026-04-30 04:36 1.3M
20260430T00Z_MSC_GDPS_SpecificHumidity_IsbL-0300_LatLon0.15_PT186H.grib2 2026-04-30 04:36 1.2M
20260430T00Z_MSC_GDPS_SpecificHumidity_IsbL-0350_LatLon0.15_PT186H.grib2 2026-04-30 04:36 1.2M
20260430T00Z_MSC_GDPS_SpecificHumidity_IsbL-0400_LatLon0.15_PT186H.grib2 2026-04-30 04:36 1.5M
20260430T00Z_MSC_GDPS_SpecificHumidity_IsbL-0450_LatLon0.15_PT186H.grib2 2026-04-30 04:36 1.3M
20260430T00Z_MSC_GDPS_SpecificHumidity_IsbL-0500_LatLon0.15_PT186H.grib2 2026-04-30 04:36 1.5M
20260430T00Z_MSC_GDPS_SpecificHumidity_IsbL-0550_LatLon0.15_PT186H.grib2 2026-04-30 04:36 1.6M
20260430T00Z_MSC_GDPS_SpecificHumidity_IsbL-0600_LatLon0.15_PT186H.grib2 2026-04-30 04:36 1.8M
20260430T00Z_MSC_GDPS_SpecificHumidity_IsbL-0650_LatLon0.15_PT186H.grib2 2026-04-30 04:36 1.5M
20260430T00Z_MSC_GDPS_SpecificHumidity_IsbL-0700_LatLon0.15_PT186H.grib2 2026-04-30 04:36 1.6M
20260430T00Z_MSC_GDPS_SpecificHumidity_IsbL-0750_LatLon0.15_PT186H.grib2 2026-04-30 04:36 1.7M
20260430T00Z_MSC_GDPS_SpecificHumidity_IsbL-0800_LatLon0.15_PT186H.grib2 2026-04-30 04:36 1.9M
20260430T00Z_MSC_GDPS_SpecificHumidity_IsbL-0850_LatLon0.15_PT186H.grib2 2026-04-30 04:36 2.0M
20260430T00Z_MSC_GDPS_SpecificHumidity_IsbL-0875_LatLon0.15_PT186H.grib2 2026-04-30 04:36 2.0M
20260430T00Z_MSC_GDPS_SpecificHumidity_IsbL-0900_LatLon0.15_PT186H.grib2 2026-04-30 04:36 1.9M
20260430T00Z_MSC_GDPS_SpecificHumidity_IsbL-0925_LatLon0.15_PT186H.grib2 2026-04-30 04:36 1.9M
20260430T00Z_MSC_GDPS_SpecificHumidity_IsbL-0950_LatLon0.15_PT186H.grib2 2026-04-30 04:36 1.6M
20260430T00Z_MSC_GDPS_SpecificHumidity_IsbL-0970_LatLon0.15_PT186H.grib2 2026-04-30 04:36 1.5M
20260430T00Z_MSC_GDPS_SpecificHumidity_IsbL-0985_LatLon0.15_PT186H.grib2 2026-04-30 04:36 1.5M
20260430T00Z_MSC_GDPS_SpecificHumidity_IsbL-1000_LatLon0.15_PT186H.grib2 2026-04-30 04:36 1.5M
20260430T00Z_MSC_GDPS_SpecificHumidity_IsbL-1015_LatLon0.15_PT186H.grib2 2026-04-30 04:36 1.5M
20260430T00Z_MSC_GDPS_SpecificHumidity_Sfc_LatLon0.15_PT186H.grib2 2026-04-30 04:36 676K
20260430T00Z_MSC_GDPS_Thickness_IsbL-0850to0700_LatLon0.15_PT186H.grib2 2026-04-30 04:36 473K
20260430T00Z_MSC_GDPS_Thickness_IsbL-1000to0500_LatLon0.15_PT186H.grib2 2026-04-30 04:36 377K
20260430T00Z_MSC_GDPS_Thickness_IsbL-1000to0850_LatLon0.15_PT186H.grib2 2026-04-30 04:36 491K
20260430T00Z_MSC_GDPS_TotalCloudCover_Sfc_LatLon0.15_PT186H.grib2 2026-04-30 04:36 819K
20260430T00Z_MSC_GDPS_TotalTotalsIndex_Sfc_LatLon0.15_PT186H.grib2 2026-04-30 04:36 6.2M
20260430T00Z_MSC_GDPS_UVIndex-ClearSky-Max24h_Sfc_LatLon0.15_PT186H.grib2 2026-04-30 04:51 2.2M
20260430T00Z_MSC_GDPS_UVIndex-ClearSky_Sfc_LatLon0.15_PT186H.grib2 2026-04-30 04:51 1.0M
20260430T00Z_MSC_GDPS_UVIndex-Max24h_Sfc_LatLon0.15_PT186H.grib2 2026-04-30 04:51 3.2M
20260430T00Z_MSC_GDPS_UVIndex_Sfc_LatLon0.15_PT186H.grib2 2026-04-30 04:51 1.5M
20260430T00Z_MSC_GDPS_UpwardLongwaveRadiationFlux_NTAtm_LatLon0.15_PT186H.grib2 2026-04-30 04:36 835K
20260430T00Z_MSC_GDPS_VerticalVelocity_IsbL-0200_LatLon0.15_PT186H.grib2 2026-04-30 04:36 1.1M
20260430T00Z_MSC_GDPS_VerticalVelocity_IsbL-0250_LatLon0.15_PT186H.grib2 2026-04-30 04:36 1.0M
20260430T00Z_MSC_GDPS_VerticalVelocity_IsbL-0500_LatLon0.15_PT186H.grib2 2026-04-30 04:36 1.3M
20260430T00Z_MSC_GDPS_VerticalVelocity_IsbL-0600_LatLon0.15_PT186H.grib2 2026-04-30 04:36 1.1M
20260430T00Z_MSC_GDPS_VerticalVelocity_IsbL-0700_LatLon0.15_PT186H.grib2 2026-04-30 04:36 1.1M
20260430T00Z_MSC_GDPS_VerticalVelocity_IsbL-0850_LatLon0.15_PT186H.grib2 2026-04-30 04:36 1.3M
20260430T00Z_MSC_GDPS_WindChill_Sfc_LatLon0.15_PT186H.grib2 2026-04-30 04:36 5.3M
20260430T00Z_MSC_GDPS_WindDir_AGL-10m_LatLon0.15_PT186H.grib2 2026-04-30 04:36 1.3M
20260430T00Z_MSC_GDPS_WindDir_AGL-120m_LatLon0.15_PT186H.grib2 2026-04-30 04:36 1.3M
20260430T00Z_MSC_GDPS_WindDir_AGL-40m_LatLon0.15_PT186H.grib2 2026-04-30 04:36 1.4M
20260430T00Z_MSC_GDPS_WindDir_AGL-80m_LatLon0.15_PT186H.grib2 2026-04-30 04:36 1.4M
20260430T00Z_MSC_GDPS_WindDir_IsbL-0001_LatLon0.15_PT186H.grib2 2026-04-30 04:36 667K
20260430T00Z_MSC_GDPS_WindDir_IsbL-0005_LatLon0.15_PT186H.grib2 2026-04-30 04:36 811K
20260430T00Z_MSC_GDPS_WindDir_IsbL-0010_LatLon0.15_PT186H.grib2 2026-04-30 04:36 823K
20260430T00Z_MSC_GDPS_WindDir_IsbL-0020_LatLon0.15_PT186H.grib2 2026-04-30 04:36 949K
20260430T00Z_MSC_GDPS_WindDir_IsbL-0030_LatLon0.15_PT186H.grib2 2026-04-30 04:36 933K
20260430T00Z_MSC_GDPS_WindDir_IsbL-0050_LatLon0.15_PT186H.grib2 2026-04-30 04:36 951K
20260430T00Z_MSC_GDPS_WindDir_IsbL-0100_LatLon0.15_PT186H.grib2 2026-04-30 04:36 1.0M
20260430T00Z_MSC_GDPS_WindDir_IsbL-0150_LatLon0.15_PT186H.grib2 2026-04-30 04:36 1.0M
20260430T00Z_MSC_GDPS_WindDir_IsbL-0175_LatLon0.15_PT186H.grib2 2026-04-30 04:36 1.1M
20260430T00Z_MSC_GDPS_WindDir_IsbL-0200_LatLon0.15_PT186H.grib2 2026-04-30 04:36 1.1M
20260430T00Z_MSC_GDPS_WindDir_IsbL-0225_LatLon0.15_PT186H.grib2 2026-04-30 04:36 1.1M
20260430T00Z_MSC_GDPS_WindDir_IsbL-0250_LatLon0.15_PT186H.grib2 2026-04-30 04:36 1.1M
20260430T00Z_MSC_GDPS_WindDir_IsbL-0275_LatLon0.15_PT186H.grib2 2026-04-30 04:36 1.2M
20260430T00Z_MSC_GDPS_WindDir_IsbL-0300_LatLon0.15_PT186H.grib2 2026-04-30 04:36 1.2M
20260430T00Z_MSC_GDPS_WindDir_IsbL-0350_LatLon0.15_PT186H.grib2 2026-04-30 04:36 1.3M
20260430T00Z_MSC_GDPS_WindDir_IsbL-0400_LatLon0.15_PT186H.grib2 2026-04-30 04:36 1.3M
20260430T00Z_MSC_GDPS_WindDir_IsbL-0450_LatLon0.15_PT186H.grib2 2026-04-30 04:36 1.3M
20260430T00Z_MSC_GDPS_WindDir_IsbL-0500_LatLon0.15_PT186H.grib2 2026-04-30 04:36 1.4M
20260430T00Z_MSC_GDPS_WindDir_IsbL-0550_LatLon0.15_PT186H.grib2 2026-04-30 04:36 1.4M
20260430T00Z_MSC_GDPS_WindDir_IsbL-0600_LatLon0.15_PT186H.grib2 2026-04-30 04:36 1.4M
20260430T00Z_MSC_GDPS_WindDir_IsbL-0650_LatLon0.15_PT186H.grib2 2026-04-30 04:36 1.5M
20260430T00Z_MSC_GDPS_WindDir_IsbL-0700_LatLon0.15_PT186H.grib2 2026-04-30 04:36 1.6M
20260430T00Z_MSC_GDPS_WindDir_IsbL-0750_LatLon0.15_PT186H.grib2 2026-04-30 04:36 1.7M
20260430T00Z_MSC_GDPS_WindDir_IsbL-0800_LatLon0.15_PT186H.grib2 2026-04-30 04:36 1.8M
20260430T00Z_MSC_GDPS_WindDir_IsbL-0850_LatLon0.15_PT186H.grib2 2026-04-30 04:36 1.9M
20260430T00Z_MSC_GDPS_WindDir_IsbL-0875_LatLon0.15_PT186H.grib2 2026-04-30 04:36 1.9M
20260430T00Z_MSC_GDPS_WindDir_IsbL-0900_LatLon0.15_PT186H.grib2 2026-04-30 04:36 1.9M
20260430T00Z_MSC_GDPS_WindDir_IsbL-0925_LatLon0.15_PT186H.grib2 2026-04-30 04:36 2.0M
20260430T00Z_MSC_GDPS_WindDir_IsbL-0950_LatLon0.15_PT186H.grib2 2026-04-30 04:36 2.0M
20260430T00Z_MSC_GDPS_WindDir_IsbL-0970_LatLon0.15_PT186H.grib2 2026-04-30 04:36 2.0M
20260430T00Z_MSC_GDPS_WindDir_IsbL-0985_LatLon0.15_PT186H.grib2 2026-04-30 04:36 2.0M
20260430T00Z_MSC_GDPS_WindDir_IsbL-1000_LatLon0.15_PT186H.grib2 2026-04-30 04:36 2.0M
20260430T00Z_MSC_GDPS_WindDir_IsbL-1015_LatLon0.15_PT186H.grib2 2026-04-30 04:36 2.0M
20260430T00Z_MSC_GDPS_WindGust-Max_AGL-10m_LatLon0.15_PT186H.grib2 2026-04-30 04:36 2.2M
20260430T00Z_MSC_GDPS_WindGust-Min_AGL-10m_LatLon0.15_PT186H.grib2 2026-04-30 04:36 2.1M
20260430T00Z_MSC_GDPS_WindGust_AGL-10m_LatLon0.15_PT186H.grib2 2026-04-30 04:36 2.1M
20260430T00Z_MSC_GDPS_WindSpeed_AGL-10m_LatLon0.15_PT186H.grib2 2026-04-30 04:36 1.1M
20260430T00Z_MSC_GDPS_WindSpeed_AGL-120m_LatLon0.15_PT186H.grib2 2026-04-30 04:36 1.2M
20260430T00Z_MSC_GDPS_WindSpeed_AGL-40m_LatLon0.15_PT186H.grib2 2026-04-30 04:36 1.2M
20260430T00Z_MSC_GDPS_WindSpeed_AGL-80m_LatLon0.15_PT186H.grib2 2026-04-30 04:36 1.2M
20260430T00Z_MSC_GDPS_WindSpeed_IsbL-0001_LatLon0.15_PT186H.grib2 2026-04-30 04:36 650K
20260430T00Z_MSC_GDPS_WindSpeed_IsbL-0005_LatLon0.15_PT186H.grib2 2026-04-30 04:36 690K
20260430T00Z_MSC_GDPS_WindSpeed_IsbL-0010_LatLon0.15_PT186H.grib2 2026-04-30 04:36 623K
20260430T00Z_MSC_GDPS_WindSpeed_IsbL-0020_LatLon0.15_PT186H.grib2 2026-04-30 04:36 659K
20260430T00Z_MSC_GDPS_WindSpeed_IsbL-0030_LatLon0.15_PT186H.grib2 2026-04-30 04:36 854K
20260430T00Z_MSC_GDPS_WindSpeed_IsbL-0050_LatLon0.15_PT186H.grib2 2026-04-30 04:36 888K
20260430T00Z_MSC_GDPS_WindSpeed_IsbL-0100_LatLon0.15_PT186H.grib2 2026-04-30 04:36 1.1M
20260430T00Z_MSC_GDPS_WindSpeed_IsbL-0150_LatLon0.15_PT186H.grib2 2026-04-30 04:36 944K
20260430T00Z_MSC_GDPS_WindSpeed_IsbL-0175_LatLon0.15_PT186H.grib2 2026-04-30 04:36 1.0M
20260430T00Z_MSC_GDPS_WindSpeed_IsbL-0200_LatLon0.15_PT186H.grib2 2026-04-30 04:36 1.1M
20260430T00Z_MSC_GDPS_WindSpeed_IsbL-0225_LatLon0.15_PT186H.grib2 2026-04-30 04:36 1.1M
20260430T00Z_MSC_GDPS_WindSpeed_IsbL-0250_LatLon0.15_PT186H.grib2 2026-04-30 04:36 1.1M
20260430T00Z_MSC_GDPS_WindSpeed_IsbL-0275_LatLon0.15_PT186H.grib2 2026-04-30 04:36 1.1M
20260430T00Z_MSC_GDPS_WindSpeed_IsbL-0300_LatLon0.15_PT186H.grib2 2026-04-30 04:36 1.1M
20260430T00Z_MSC_GDPS_WindSpeed_IsbL-0350_LatLon0.15_PT186H.grib2 2026-04-30 04:36 1.1M
20260430T00Z_MSC_GDPS_WindSpeed_IsbL-0400_LatLon0.15_PT186H.grib2 2026-04-30 04:36 1.1M
20260430T00Z_MSC_GDPS_WindSpeed_IsbL-0450_LatLon0.15_PT186H.grib2 2026-04-30 04:36 1.1M
20260430T00Z_MSC_GDPS_WindSpeed_IsbL-0500_LatLon0.15_PT186H.grib2 2026-04-30 04:36 1.1M
20260430T00Z_MSC_GDPS_WindSpeed_IsbL-0550_LatLon0.15_PT186H.grib2 2026-04-30 04:36 1.1M
20260430T00Z_MSC_GDPS_WindSpeed_IsbL-0600_LatLon0.15_PT186H.grib2 2026-04-30 04:36 1.1M
20260430T00Z_MSC_GDPS_WindSpeed_IsbL-0650_LatLon0.15_PT186H.grib2 2026-04-30 04:36 1.2M
20260430T00Z_MSC_GDPS_WindSpeed_IsbL-0700_LatLon0.15_PT186H.grib2 2026-04-30 04:36 1.5M
20260430T00Z_MSC_GDPS_WindSpeed_IsbL-0750_LatLon0.15_PT186H.grib2 2026-04-30 04:36 1.6M
20260430T00Z_MSC_GDPS_WindSpeed_IsbL-0800_LatLon0.15_PT186H.grib2 2026-04-30 04:36 1.7M
20260430T00Z_MSC_GDPS_WindSpeed_IsbL-0850_LatLon0.15_PT186H.grib2 2026-04-30 04:36 1.7M
20260430T00Z_MSC_GDPS_WindSpeed_IsbL-0875_LatLon0.15_PT186H.grib2 2026-04-30 04:36 1.8M
20260430T00Z_MSC_GDPS_WindSpeed_IsbL-0900_LatLon0.15_PT186H.grib2 2026-04-30 04:36 1.8M
20260430T00Z_MSC_GDPS_WindSpeed_IsbL-0925_LatLon0.15_PT186H.grib2 2026-04-30 04:36 1.8M
20260430T00Z_MSC_GDPS_WindSpeed_IsbL-0950_LatLon0.15_PT186H.grib2 2026-04-30 04:36 1.8M
20260430T00Z_MSC_GDPS_WindSpeed_IsbL-0970_LatLon0.15_PT186H.grib2 2026-04-30 04:36 1.9M
20260430T00Z_MSC_GDPS_WindSpeed_IsbL-0985_LatLon0.15_PT186H.grib2 2026-04-30 04:36 1.9M
20260430T00Z_MSC_GDPS_WindSpeed_IsbL-1000_LatLon0.15_PT186H.grib2 2026-04-30 04:36 1.9M
20260430T00Z_MSC_GDPS_WindSpeed_IsbL-1015_LatLon0.15_PT186H.grib2 2026-04-30 04:36 1.8M
20260430T00Z_MSC_GDPS_WindU_AGL-10m_LatLon0.15_PT186H.grib2 2026-04-30 04:36 1.3M
20260430T00Z_MSC_GDPS_WindU_AGL-120m_LatLon0.15_PT186H.grib2 2026-04-30 04:36 1.0M
20260430T00Z_MSC_GDPS_WindU_AGL-40m_LatLon0.15_PT186H.grib2 2026-04-30 04:36 967K
20260430T00Z_MSC_GDPS_WindU_AGL-80m_LatLon0.15_PT186H.grib2 2026-04-30 04:36 1.0M
20260430T00Z_MSC_GDPS_WindU_IsbL-0001_LatLon0.15_PT186H.grib2 2026-04-30 04:36 503K
20260430T00Z_MSC_GDPS_WindU_IsbL-0005_LatLon0.15_PT186H.grib2 2026-04-30 04:36 691K
20260430T00Z_MSC_GDPS_WindU_IsbL-0010_LatLon0.15_PT186H.grib2 2026-04-30 04:36 699K
20260430T00Z_MSC_GDPS_WindU_IsbL-0020_LatLon0.15_PT186H.grib2 2026-04-30 04:36 724K
20260430T00Z_MSC_GDPS_WindU_IsbL-0030_LatLon0.15_PT186H.grib2 2026-04-30 04:36 732K
20260430T00Z_MSC_GDPS_WindU_IsbL-0050_LatLon0.15_PT186H.grib2 2026-04-30 04:36 757K
20260430T00Z_MSC_GDPS_WindU_IsbL-0100_LatLon0.15_PT186H.grib2 2026-04-30 04:36 863K
20260430T00Z_MSC_GDPS_WindU_IsbL-0150_LatLon0.15_PT186H.grib2 2026-04-30 04:36 1.0M
20260430T00Z_MSC_GDPS_WindU_IsbL-0175_LatLon0.15_PT186H.grib2 2026-04-30 04:36 1.0M
20260430T00Z_MSC_GDPS_WindU_IsbL-0200_LatLon0.15_PT186H.grib2 2026-04-30 04:36 1.1M
20260430T00Z_MSC_GDPS_WindU_IsbL-0225_LatLon0.15_PT186H.grib2 2026-04-30 04:36 1.1M
20260430T00Z_MSC_GDPS_WindU_IsbL-0250_LatLon0.15_PT186H.grib2 2026-04-30 04:36 857K
20260430T00Z_MSC_GDPS_WindU_IsbL-0275_LatLon0.15_PT186H.grib2 2026-04-30 04:36 887K
20260430T00Z_MSC_GDPS_WindU_IsbL-0300_LatLon0.15_PT186H.grib2 2026-04-30 04:36 881K
20260430T00Z_MSC_GDPS_WindU_IsbL-0350_LatLon0.15_PT186H.grib2 2026-04-30 04:36 896K
20260430T00Z_MSC_GDPS_WindU_IsbL-0400_LatLon0.15_PT186H.grib2 2026-04-30 04:36 1.1M
20260430T00Z_MSC_GDPS_WindU_IsbL-0450_LatLon0.15_PT186H.grib2 2026-04-30 04:36 1.1M
20260430T00Z_MSC_GDPS_WindU_IsbL-0500_LatLon0.15_PT186H.grib2 2026-04-30 04:36 1.1M
20260430T00Z_MSC_GDPS_WindU_IsbL-0550_LatLon0.15_PT186H.grib2 2026-04-30 04:36 1.1M
20260430T00Z_MSC_GDPS_WindU_IsbL-0600_LatLon0.15_PT186H.grib2 2026-04-30 04:36 1.2M
20260430T00Z_MSC_GDPS_WindU_IsbL-0650_LatLon0.15_PT186H.grib2 2026-04-30 04:36 1.2M
20260430T00Z_MSC_GDPS_WindU_IsbL-0700_LatLon0.15_PT186H.grib2 2026-04-30 04:36 1.2M
20260430T00Z_MSC_GDPS_WindU_IsbL-0750_LatLon0.15_PT186H.grib2 2026-04-30 04:36 1.3M
20260430T00Z_MSC_GDPS_WindU_IsbL-0800_LatLon0.15_PT186H.grib2 2026-04-30 04:36 1.4M
20260430T00Z_MSC_GDPS_WindU_IsbL-0850_LatLon0.15_PT186H.grib2 2026-04-30 04:36 1.4M
20260430T00Z_MSC_GDPS_WindU_IsbL-0875_LatLon0.15_PT186H.grib2 2026-04-30 04:36 1.5M
20260430T00Z_MSC_GDPS_WindU_IsbL-0900_LatLon0.15_PT186H.grib2 2026-04-30 04:36 1.5M
20260430T00Z_MSC_GDPS_WindU_IsbL-0925_LatLon0.15_PT186H.grib2 2026-04-30 04:36 1.5M
20260430T00Z_MSC_GDPS_WindU_IsbL-0950_LatLon0.15_PT186H.grib2 2026-04-30 04:36 1.4M
20260430T00Z_MSC_GDPS_WindU_IsbL-0970_LatLon0.15_PT186H.grib2 2026-04-30 04:36 1.4M
20260430T00Z_MSC_GDPS_WindU_IsbL-0985_LatLon0.15_PT186H.grib2 2026-04-30 04:36 1.4M
20260430T00Z_MSC_GDPS_WindU_IsbL-1000_LatLon0.15_PT186H.grib2 2026-04-30 04:36 1.4M
20260430T00Z_MSC_GDPS_WindU_IsbL-1015_LatLon0.15_PT186H.grib2 2026-04-30 04:36 1.3M
20260430T00Z_MSC_GDPS_WindV_AGL-10m_LatLon0.15_PT186H.grib2 2026-04-30 04:36 1.6M
20260430T00Z_MSC_GDPS_WindV_AGL-120m_LatLon0.15_PT186H.grib2 2026-04-30 04:36 1.0M
20260430T00Z_MSC_GDPS_WindV_AGL-40m_LatLon0.15_PT186H.grib2 2026-04-30 04:36 968K
20260430T00Z_MSC_GDPS_WindV_AGL-80m_LatLon0.15_PT186H.grib2 2026-04-30 04:36 1.0M
20260430T00Z_MSC_GDPS_WindV_IsbL-0001_LatLon0.15_PT186H.grib2 2026-04-30 04:36 716K
20260430T00Z_MSC_GDPS_WindV_IsbL-0005_LatLon0.15_PT186H.grib2 2026-04-30 04:36 858K
20260430T00Z_MSC_GDPS_WindV_IsbL-0010_LatLon0.15_PT186H.grib2 2026-04-30 04:36 881K
20260430T00Z_MSC_GDPS_WindV_IsbL-0020_LatLon0.15_PT186H.grib2 2026-04-30 04:36 842K
20260430T00Z_MSC_GDPS_WindV_IsbL-0030_LatLon0.15_PT186H.grib2 2026-04-30 04:36 931K
20260430T00Z_MSC_GDPS_WindV_IsbL-0050_LatLon0.15_PT186H.grib2 2026-04-30 04:36 971K
20260430T00Z_MSC_GDPS_WindV_IsbL-0100_LatLon0.15_PT186H.grib2 2026-04-30 04:36 1.1M
20260430T00Z_MSC_GDPS_WindV_IsbL-0150_LatLon0.15_PT186H.grib2 2026-04-30 04:36 1.0M
20260430T00Z_MSC_GDPS_WindV_IsbL-0175_LatLon0.15_PT186H.grib2 2026-04-30 04:36 1.0M
20260430T00Z_MSC_GDPS_WindV_IsbL-0200_LatLon0.15_PT186H.grib2 2026-04-30 04:36 1.1M
20260430T00Z_MSC_GDPS_WindV_IsbL-0225_LatLon0.15_PT186H.grib2 2026-04-30 04:36 853K
20260430T00Z_MSC_GDPS_WindV_IsbL-0250_LatLon0.15_PT186H.grib2 2026-04-30 04:36 853K
20260430T00Z_MSC_GDPS_WindV_IsbL-0275_LatLon0.15_PT186H.grib2 2026-04-30 04:36 882K
20260430T00Z_MSC_GDPS_WindV_IsbL-0300_LatLon0.15_PT186H.grib2 2026-04-30 04:36 875K
20260430T00Z_MSC_GDPS_WindV_IsbL-0350_LatLon0.15_PT186H.grib2 2026-04-30 04:36 888K
20260430T00Z_MSC_GDPS_WindV_IsbL-0400_LatLon0.15_PT186H.grib2 2026-04-30 04:36 885K
20260430T00Z_MSC_GDPS_WindV_IsbL-0450_LatLon0.15_PT186H.grib2 2026-04-30 04:36 1.1M
20260430T00Z_MSC_GDPS_WindV_IsbL-0500_LatLon0.15_PT186H.grib2 2026-04-30 04:36 1.1M
20260430T00Z_MSC_GDPS_WindV_IsbL-0550_LatLon0.15_PT186H.grib2 2026-04-30 04:36 1.1M
20260430T00Z_MSC_GDPS_WindV_IsbL-0600_LatLon0.15_PT186H.grib2 2026-04-30 04:36 1.1M
20260430T00Z_MSC_GDPS_WindV_IsbL-0650_LatLon0.15_PT186H.grib2 2026-04-30 04:36 1.2M
20260430T00Z_MSC_GDPS_WindV_IsbL-0700_LatLon0.15_PT186H.grib2 2026-04-30 04:36 1.2M
20260430T00Z_MSC_GDPS_WindV_IsbL-0750_LatLon0.15_PT186H.grib2 2026-04-30 04:36 1.3M
20260430T00Z_MSC_GDPS_WindV_IsbL-0800_LatLon0.15_PT186H.grib2 2026-04-30 04:36 1.3M
20260430T00Z_MSC_GDPS_WindV_IsbL-0850_LatLon0.15_PT186H.grib2 2026-04-30 04:36 1.4M
20260430T00Z_MSC_GDPS_WindV_IsbL-0875_LatLon0.15_PT186H.grib2 2026-04-30 04:36 1.4M
20260430T00Z_MSC_GDPS_WindV_IsbL-0900_LatLon0.15_PT186H.grib2 2026-04-30 04:36 1.5M
20260430T00Z_MSC_GDPS_WindV_IsbL-0925_LatLon0.15_PT186H.grib2 2026-04-30 04:36 1.5M
20260430T00Z_MSC_GDPS_WindV_IsbL-0950_LatLon0.15_PT186H.grib2 2026-04-30 04:36 1.4M
20260430T00Z_MSC_GDPS_WindV_IsbL-0970_LatLon0.15_PT186H.grib2 2026-04-30 04:36 1.4M
20260430T00Z_MSC_GDPS_WindV_IsbL-0985_LatLon0.15_PT186H.grib2 2026-04-30 04:36 1.4M
20260430T00Z_MSC_GDPS_WindV_IsbL-1000_LatLon0.15_PT186H.grib2 2026-04-30 04:36 1.4M
20260430T00Z_MSC_GDPS_WindV_IsbL-1015_LatLon0.15_PT186H.grib2 2026-04-30 04:36 1.6M